Regional Weather Roundup
Issued by NWS Cleveland, OH

Home | Current Version | Previous Version | Graphics & Text | Print | Product List | Glossary On
Versions: 1 2 3 4 5 6 7 8 9 10 11 12 13 14 15 16 17 18 19 20 21 22 23 24 25 26 27 28 29 30 31 32 33 34 35 36 37 38 39 40 41 42 43 44 45 46 47 48 49 50
000
ASUS41 KCLE 011700
RWRCLE
OHIO REGIONAL WEATHER ROUNDUP
NATIONAL WEATHER SERVICE WILMINGTON, OH
100 PM EDT FRI AUG 01 2014

NOTE: "FAIR" INDICATES FEW OR NO CLOUDS BELOW 12,000 FEET WITH NO
SIGNIFICANT WEATHER AND/OR OBSTRUCTIONS TO VISIBILITY.

OHZ001>008-015>018-024>027-034-035-043-044-011800-
   NORTHWEST OHIO

CITY           SKY/WX    TMP DP  RH WIND       PRES   REMARKS
DEFIANCE       MOSUNNY   80  61  52 CALM      30.12S
FINDLAY        PTSUNNY   80  61  52 W5        30.12S
TOLEDO EXPRESS MOSUNNY   80  61  52 W7        30.11F
TOLEDO METCALF MOSUNNY   82  61  48 W7        30.12S
LIMA           MOSUNNY   81  62  52 CALM      30.13F
$$

OHZ009>014-019>023-028>033-038-089-011800-
   NORTHEAST OHIO

CITY           SKY/WX    TMP DP  RH WIND       PRES   REMARKS
CLE-HOPKINS    MOSUNNY   79  60  52 S8        30.15S
CLE-LAKEFRONT  SUNNY     77  65  66 NW6       30.11F
CUY CO. ARPT   NOT AVBL
LORAIN-ELYRIA  MOSUNNY   82  62  50 NW6       30.13F
ASHTABULA      SUNNY     79  59  50 W8        30.15F
AKRON-CANTON   MOSUNNY   80  57  45 CALM      30.14F
WOOSTER        NOT AVBL
MANSFIELD      MOSUNNY   78  58  49 CALM      30.15S
YOUNGSTOWN     MOSUNNY   79  58  48 CALM      30.15F
$$

OHZ042-051>053-060>062-070>072-077>081-011800-
  SOUTHWEST OHIO

CITY           SKY/WX    TMP DP  RH WIND       PRES   REMARKS
CINC-COVINGTON PTSUNNY   82  57  42 N5        30.11F
CINC-LUNKEN    MOSUNNY   82  55  39 CALM      30.11S
HAMILTON       MOSUNNY   80  60  50 NE6       30.12F
DAYTON         NOT AVBL
WRIGHT-PAT AFB MOSUNNY   79  59  50 VRB1      30.12F
DAYTON GENERAL MOSUNNY   81  61  50 NW7       30.12F
WILMINGTON     SUNNY     81  61  50 N6        30.12F
$$

OHZ036-037-039>041-045>050-054>059-063>069-073>076-082>088-011800-
  CENTRAL AND SOUTHEAST OHIO

CITY           SKY/WX    TMP DP  RH WIND       PRES   REMARKS
COLUMBUS       MOSUNNY   84  59  42 VRB3      30.11F
OSU AIRPORT    CLOUDY    79  61  53 NW3       30.12F
BOLTON FIELD   MOSUNNY   81  64  57 S5        30.13F
RICKENBACK AFB NOT AVBL
NEWARK         SUNNY     81  60  48 SE3       30.12F
MARION         MOSUNNY   79  59  50 VRB3      30.14S
LANCASTER      MOSUNNY   81  60  48 NE5       30.13F
ZANESVILLE     SUNNY     79  60  52 VRB3      30.13F
NEW PHILLY     SUNNY     80  64  58 VRB5      30.14F
$$



USA.gov is the U.S. government's official web portal to all federal, state and local government web resources and services.